| time (UTC) | temp F | wind direction | speed knots | gust knots | rain 1hr in | rain 24hr in | rain mn in | humidity % | barometer mb |
| 20260510061136 | 66 | 84 | 0.0 | 0.0 | 0.00 | 0.01 | 0.00 | 57 | 1009.5 |
| 20260510060941 | 66 | 84 | 0.0 | 0.0 | 0.00 | 0.01 | 0.00 | 57 | 1009.5 |
| 20260510060139 | 66 | 84 | 0.0 | 0.0 | 0.00 | 0.01 | 0.00 | 56 | 1009.5 |
| 20260510055633 | 66 | 84 | 0.0 | 0.0 | 0.00 | 0.01 | 0.00 | 56 | 1009.6 |
| 20260510055130 | 66 | 84 | 0.0 | 0.0 | 0.00 | 0.01 | 0.00 | 58 | 1009.6 |
| 20260510054943 | 66 | 84 | 0.0 | 0.0 | 0.00 | 0.01 | 0.00 | 64 | 1009.5 |
| 20260510054441 | 66 | 84 | 0.0 | 0.0 | 0.00 | 0.01 | 0.00 | 69 | 1009.5 |
| 20260510053630 | 67 | 84 | 0.0 | 0.0 | 0.00 | 0.01 | 0.00 | 70 | 1009.5 |
| 20260510053441 | 67 | 84 | 0.0 | 0.0 | 0.00 | 0.01 | 0.00 | 70 | 1009.5 |
| 20260510052629 | 67 | 84 | 0.0 | 0.0 | 0.00 | 0.01 | 0.00 | 71 | 1009.5 |
| 20260510052130 | 68 | 84 | 0.0 | 0.0 | 0.00 | 0.01 | 0.00 | 71 | 1009.5 |
| 20260510051630 | 68 | 84 | 0.0 | 0.0 | 0.00 | 0.01 | 0.00 | 71 | 1009.5 |
| 20260510051129 | 69 | 84 | 0.0 | 0.0 | 0.00 | 0.01 | 0.00 | 70 | 1009.5 |
| 20260510050634 | 69 | 84 | 0.0 | 0.0 | 0.00 | 0.01 | 0.00 | 70 | 1009.4 |
| 20260510050138 | 69 | 84 | 0.0 | 0.0 | 0.00 | 0.01 | 0.00 | 71 | 1009.5 |
| 20260510045628 | 70 | 84 | 0.0 | 0.0 | 0.00 | 0.01 | 0.01 | 71 | 1009.5 |
| 20260510045121 | 70 | 84 | 0.0 | 0.0 | 0.00 | 0.01 | 0.01 | 72 | 1009.5 |
| 20260510044624 | 70 | 84 | 0.0 | 0.0 | 0.00 | 0.01 | 0.01 | 72 | 1009.5 |
| 20260510044300 | 71 | 84 | 0.0 | 0.0 | 0.00 | 0.01 | 0.01 | 72 | 1009.5 |
| 20260510043800 | 71 | 84 | 0.0 | 0.0 | 0.00 | 0.01 | 0.01 | 71 | 1009.5 |
| 20260510043739 | 71 | 84 | 0.0 | 0.9 | 0.00 | 0.01 | 0.01 | 70 | 1009.6 |
| 20260510043356 | 71 | 84 | 0.0 | 0.9 | 0.00 | 0.01 | 0.01 | 71 | 1009.6 |
| 20260510042611 | 71 | 84 | 0.0 | 0.0 | 0.00 | 0.01 | 0.01 | 70 | 1009.5 |
| 20260510041758 | 71 | 84 | 0.0 | 0.0 | 0.00 | 0.01 | 0.01 | 70 | 1009.6 |
| 20260510041254 | 71 | 84 | 0.0 | 0.0 | 0.00 | 0.01 | 0.01 | 70 | 1009.6 |
| 20260510041108 | 71 | 84 | 0.0 | 0.0 | 0.00 | 0.01 | 0.01 | 70 | 1009.6 |
| 20260510040254 | 71 | 84 | 0.0 | 0.0 | 0.00 | 0.01 | 0.01 | 69 | 1009.4 |
| 20260510035755 | 71 | 86 | 0.0 | 0.0 | 0.00 | 0.01 | 0.01 | 68 | 1009.4 |
| 20260510035255 | 71 | 82 | 0.0 | 0.0 | 0.00 | 0.01 | 0.01 | 67 | 1009.3 |
| 20260510034753 | 70 | 94 | 0.0 | 0.9 | 0.00 | 0.01 | 0.01 | 65 | 1009.3 |
| 20260510034252 | 70 | 94 | 0.0 | 2.6 | 0.00 | 0.01 | 0.01 | 64 | 1009.3 |
| 20260510033752 | 69 | 73 | 0.0 | 2.6 | 0.00 | 0.01 | 0.01 | 65 | 1009.3 |
| 20260510033251 | 69 | 207 | 0.0 | 0.0 | 0.00 | 0.01 | 0.01 | 67 | 1009.2 |
| 20260510032751 | 69 | 207 | 0.0 | 0.0 | 0.00 | 0.01 | 0.01 | 68 | 1009.2 |
| 20260510032252 | 69 | 207 | 0.0 | 0.0 | 0.00 | 0.01 | 0.01 | 69 | 1009.2 |
| 20260510031753 | 69 | 207 | 0.0 | 0.0 | 0.00 | 0.01 | 0.01 | 69 | 1009.2 |
| 20260510031253 | 70 | 207 | 0.0 | 0.0 | 0.00 | 0.01 | 0.01 | 70 | 1009.3 |
| 20260510030752 | 70 | 207 | 0.0 | 0.0 | 0.00 | 0.01 | 0.01 | 70 | 1009.2 |
| 20260510030253 | 70 | 207 | 0.0 | 0.0 | 0.00 | 0.01 | 0.01 | 70 | 1009.1 |
| 20260510025753 | 70 | 207 | 0.0 | 0.0 | 0.00 | 0.01 | 0.01 | 71 | 1009.0 |
| 20260510025252 | 71 | 207 | 0.0 | 0.0 | 0.00 | 0.01 | 0.01 | 71 | 1009.0 |
| 20260510024753 | 71 | 207 | 0.0 | 0.0 | 0.00 | 0.01 | 0.01 | 71 | 1008.9 |
| 20260510024254 | 71 | 207 | 0.0 | 0.0 | 0.00 | 0.01 | 0.01 | 71 | 1008.8 |
| 20260510023751 | 71 | 207 | 0.0 | 0.0 | 0.00 | 0.01 | 0.01 | 71 | 1008.6 |
| 20260510023253 | 71 | 207 | 0.0 | 0.0 | 0.00 | 0.01 | 0.01 | 71 | 1008.5 |
| 20260510022751 | 72 | 207 | 0.0 | 0.0 | 0.00 | 0.01 | 0.01 | 71 | 1008.5 |
| 20260510022253 | 72 | 207 | 0.0 | 0.0 | 0.00 | 0.01 | 0.01 | 71 | 1008.4 |
| 20260510022100 | 73 | 207 | 0.0 | 0.0 | 0.00 | 0.01 | 0.01 | 71 | 1008.3 |
| 20260510021252 | 73 | 207 | 0.0 | 0.0 | 0.00 | 0.01 | 0.01 | 70 | 1008.3 |
| 20260510020752 | 74 | 207 | 0.0 | 0.0 | 0.00 | 0.01 | 0.01 | 70 | 1008.1 |
| 20260510020250 | 75 | 207 | 0.0 | 0.0 | 0.00 | 0.01 | 0.01 | 69 | 1008.1 |
| 20260510015751 | 76 | 207 | 0.0 | 0.0 | 0.00 | 0.01 | 0.01 | 68 | 1008.0 |
| 20260510015249 | 76 | 207 | 0.0 | 0.0 | 0.00 | 0.01 | 0.01 | 67 | 1008.0 |
| 20260510014746 | 78 | 207 | 0.0 | 0.0 | 0.00 | 0.01 | 0.01 | 66 | 1007.8 |
| 20260510014559 | 79 | 207 | 0.0 | 0.0 | 0.00 | 0.01 | 0.01 | 65 | 1007.6 |
| 20260510014110 | 80 | 207 | 0.0 | 0.0 | 0.00 | 0.01 | 0.01 | 63 | 1007.6 |
| 20260510013247 | 82 | 207 | 0.0 | 0.0 | 0.00 | 0.01 | 0.01 | 62 | 1007.6 |
| 20260510012741 | 84 | 207 | 0.0 | 0.0 | 0.00 | 0.01 | 0.01 | 60 | 1007.6 |
| 20260510012239 | 85 | 207 | 0.0 | 0.0 | 0.00 | 0.01 | 0.01 | 58 | 1007.6 |
| 20260510011738 | 86 | 207 | 0.0 | 0.0 | 0.00 | 0.01 | 0.01 | 56 | 1007.6 |
| 20260510011553 | 87 | 207 | 0.0 | 0.0 | 0.00 | 0.01 | 0.01 | 54 | 1007.6 |
| 20260510010736 | 88 | 207 | 0.0 | 0.0 | 0.00 | 0.01 | 0.01 | 51 | 1007.5 |
| 20260510010233 | 89 | 207 | 0.0 | 0.0 | 0.00 | 0.01 | 0.01 | 52 | 1007.5 |
| 20260510010044 | 90 | 207 | 0.0 | 0.0 | 0.00 | 0.01 | 0.01 | 50 | 1007.4 |
| 20260510005231 | 90 | 207 | 0.0 | 0.0 | 0.00 | 0.01 | 0.01 | 47 | 1007.4 |
| 20260510005214 | 91 | 207 | 0.0 | 0.0 | 0.00 | 0.01 | 0.01 | 43 | 1007.5 |
| 20260510004831 | 91 | 207 | 0.0 | 0.0 | 0.00 | 0.01 | 0.01 | 47 | 1007.4 |
| 20260510003741 | 91 | 207 | 0.0 | 0.0 | 0.00 | 0.01 | 0.01 | 41 | 1007.4 |
| 20260510003037 | 92 | 207 | 0.0 | 0.0 | 0.00 | 0.01 | 0.01 | 41 | 1007.4 |
| 20260510002533 | 92 | 207 | 0.0 | 0.0 | 0.00 | 0.01 | 0.01 | 42 | 1007.4 |
| 20260510002035 | 92 | 207 | 0.0 | 0.0 | 0.00 | 0.01 | 0.01 | 40 | 1007.4 |
| 20260510001532 | 92 | 207 | 0.0 | 0.0 | 0.00 | 0.01 | 0.01 | 41 | 1007.3 |
| 20260510001031 | 92 | 207 | 0.0 | 0.0 | 0.00 | 0.01 | 0.01 | 42 | 1007.3 |
| 20260510000530 | 92 | 207 | 0.0 | 0.0 | 0.00 | 0.01 | 0.01 | 41 | 1007.4 |
| 20260510000030 | 91 | 207 | 0.0 | 0.0 | 0.00 | 0.01 | 0.01 | 40 | 1007.4 |
| 20260509235530 | 91 | 207 | 0.0 | 0.0 | 0.00 | 0.01 | 0.01 | 42 | 1007.3 |
| 20260509235031 | 91 | 207 | 0.0 | 0.0 | 0.00 | 0.01 | 0.01 | 40 | 1007.3 |
| 20260509234843 | 91 | 207 | 0.0 | 0.0 | 0.00 | 0.01 | 0.01 | 43 | 1007.3 |
| 20260509234350 | 91 | 207 | 0.0 | 0.0 | 0.00 | 0.01 | 0.01 | 40 | 1007.3 |
| 20260509233529 | 91 | 206 | 0.0 | 0.0 | 0.00 | 0.01 | 0.01 | 41 | 1007.4 |
| 20260509233027 | 91 | 213 | 0.0 | 0.0 | 0.00 | 0.01 | 0.01 | 43 | 1007.4 |
| 20260509232523 | 91 | 213 | 0.0 | 0.0 | 0.00 | 0.01 | 0.01 | 42 | 1007.4 |
| 20260509232328 | 91 | 213 | 0.0 | 0.0 | 0.00 | 0.01 | 0.01 | 43 | 1007.3 |
| 20260509231523 | 91 | 213 | 0.0 | 4.3 | 0.00 | 0.01 | 0.01 | 45 | 1007.3 |
| 20260509231021 | 91 | 168 | 0.0 | 4.3 | 0.00 | 0.01 | 0.01 | 46 | 1007.3 |
| 20260509230519 | 91 | 236 | 0.0 | 0.0 | 0.00 | 0.01 | 0.01 | 42 | 1007.3 |
| 20260509230334 | 91 | 236 | 0.0 | 0.0 | 0.00 | 0.01 | 0.01 | 42 | 1007.3 |
| 20260509225517 | 91 | 236 | 0.0 | 0.0 | 0.00 | 0.01 | 0.01 | 43 | 1007.4 |
| 20260509225017 | 91 | 236 | 0.0 | 0.0 | 0.00 | 0.01 | 0.01 | 45 | 1007.4 |
| 20260509224514 | 91 | 236 | 0.0 | 0.9 | 0.00 | 0.01 | 0.01 | 43 | 1007.5 |
| 20260509224322 | 91 | 265 | 0.0 | 0.9 | 0.00 | 0.01 | 0.01 | 41 | 1007.5 |
| 20260509223514 | 91 | 230 | 0.0 | 0.0 | 0.00 | 0.01 | 0.01 | 41 | 1007.4 |
| 20260509223013 | 91 | 226 | 0.0 | 0.0 | 0.00 | 0.01 | 0.01 | 39 | 1007.4 |
| 20260509222512 | 91 | 216 | 0.0 | 0.0 | 0.00 | 0.01 | 0.01 | 43 | 1007.4 |
| 20260509222011 | 91 | 244 | 0.0 | 0.9 | 0.00 | 0.01 | 0.01 | 45 | 1007.3 |
| 20260509221519 | 91 | 273 | 0.0 | 0.9 | 0.00 | 0.01 | 0.01 | 44 | 1007.4 |
| 20260509221328 | 91 | 288 | 0.0 | 0.0 | 0.00 | 0.01 | 0.01 | 44 | 1007.3 |
| 20260509220509 | 91 | 230 | 0.0 | 0.0 | 0.00 | 0.01 | 0.01 | 44 | 1007.3 |
| 20260509220006 | 91 | 236 | 0.0 | 0.9 | 0.00 | 0.01 | 0.01 | 41 | 1007.4 |
| 20260509215505 | 91 | 261 | 0.0 | 1.7 | 0.00 | 0.01 | 0.01 | 44 | 1007.4 |
| 20260509215005 | 91 | 259 | 0.0 | 1.7 | 0.00 | 0.01 | 0.01 | 42 | 1007.4 |
| 20260509214504 | 91 | 277 | 0.0 | 0.9 | 0.00 | 0.01 | 0.01 | 46 | 1007.5 |
| 20260509214003 | 91 | 239 | 0.0 | 0.0 | 0.00 | 0.01 | 0.01 | 44 | 1007.5 |
| 20260509213504 | 91 | 235 | 0.0 | 0.0 | 0.00 | 0.01 | 0.01 | 44 | 1007.6 |
| 20260509213003 | 91 | 218 | 0.0 | 0.0 | 0.00 | 0.01 | 0.01 | 47 | 1007.6 |
| 20260509212459 | 90 | 238 | 0.0 | 0.9 | 0.00 | 0.01 | 0.01 | 48 | 1007.6 |
| 20260509211953 | 90 | 277 | 0.0 | 0.9 | 0.00 | 0.01 | 0.01 | 48 | 1007.6 |
| 20260509211447 | 90 | 240 | 0.0 | 0.9 | 0.00 | 0.01 | 0.01 | 48 | 1007.7 |
| 20260509210949 | 90 | 229 | 0.0 | 0.9 | 0.00 | 0.01 | 0.01 | 45 | 1007.8 |
| 20260509210448 | 90 | 253 | 0.0 | 0.9 | 0.00 | 0.01 | 0.01 | 49 | 1008.0 |
| 20260509205948 | 90 | 222 | 0.0 | 1.7 | 0.00 | 0.01 | 0.01 | 44 | 1008.0 |
| 20260509205750 | 90 | 315 | 0.0 | 1.7 | 0.00 | 0.01 | 0.01 | 44 | 1008.2 |
| 20260509204946 | 90 | 245 | 0.0 | 0.9 | 0.00 | 0.01 | 0.01 | 45 | 1008.3 |
| 20260509204445 | 89 | 234 | 0.0 | 0.9 | 0.00 | 0.01 | 0.01 | 44 | 1008.5 |
| 20260509203945 | 89 | 279 | 0.9 | 5.2 | 0.00 | 0.01 | 0.01 | 47 | 1008.5 |
| 20260509203445 | 89 | 221 | 0.9 | 5.2 | 0.00 | 0.01 | 0.01 | 52 | 1008.8 |
| 20260509202942 | 89 | 253 | 0.0 | 0.9 | 0.00 | 0.01 | 0.01 | 47 | 1008.9 |
| 20260509202749 | 89 | 261 | 0.0 | 3.5 | 0.00 | 0.01 | 0.01 | 49 | 1009.0 |
| 20260509201938 | 89 | 252 | 0.0 | 3.5 | 0.00 | 0.01 | 0.01 | 52 | 1009.1 |
| 20260509201438 | 89 | 234 | 0.0 | 0.9 | 0.00 | 0.01 | 0.01 | 49 | 1009.1 |
| 20260509200937 | 89 | 261 | 0.0 | 0.9 | 0.00 | 0.01 | 0.01 | 50 | 1009.1 |
| 20260509200439 | 89 | 223 | 0.9 | 7.8 | 0.00 | 0.01 | 0.01 | 51 | 1009.3 |
| 20260509195931 | 89 | 234 | 0.9 | 7.8 | 0.00 | 0.01 | 0.01 | 50 | 1009.2 |
| 20260509195430 | 88 | 281 | 0.0 | 0.9 | 0.00 | 0.01 | 0.01 | 49 | 1009.3 |
| 20260509194932 | 88 | 321 | 0.0 | 0.9 | 0.00 | 0.01 | 0.01 | 52 | 1009.3 |
| 20260509194432 | 88 | 254 | 0.0 | 0.0 | 0.00 | 0.01 | 0.01 | 51 | 1009.5 |
| 20260509193931 | 88 | 218 | 0.0 | 0.9 | 0.00 | 0.01 | 0.01 | 54 | 1009.4 |
| 20260509193741 | 88 | 268 | 0.0 | 0.9 | 0.00 | 0.01 | 0.01 | 53 | 1009.5 |
| 20260509192930 | 88 | 223 | 0.0 | 0.9 | 0.00 | 0.01 | 0.01 | 53 | 1009.6 |
| 20260509192431 | 88 | 218 | 0.0 | 0.9 | 0.00 | 0.01 | 0.01 | 53 | 1009.6 |
| 20260509191930 | 88 | 251 | 0.0 | 0.9 | 0.00 | 0.01 | 0.01 | 53 | 1009.6 |
| 20260509191429 | 88 | 210 | 0.0 | 0.0 | 0.00 | 0.01 | 0.01 | 55 | 1009.5 |
| 20260509190929 | 87 | 234 | 0.0 | 0.0 | 0.00 | 0.01 | 0.01 | 56 | 1009.6 |
| 20260509190428 | 87 | 148 | 0.0 | 0.0 | 0.00 | 0.01 | 0.01 | 58 | 1009.7 |
| 20260509185928 | 87 | 215 | 0.0 | 0.0 | 0.00 | 0.01 | 0.01 | 56 | 1009.7 |
| 20260509185429 | 86 | 232 | 0.0 | 0.9 | 0.00 | 0.01 | 0.01 | 53 | 1009.7 |
| 20260509184928 | 86 | 225 | 0.9 | 7.0 | 0.00 | 0.01 | 0.01 | 55 | 1009.7 |
| 20260509184733 | 86 | 262 | 0.9 | 8.7 | 0.00 | 0.01 | 0.01 | 55 | 1009.8 |
| 20260509183925 | 86 | 255 | 0.0 | 8.7 | 0.00 | 0.01 | 0.01 | 55 | 1009.9 |
| 20260509183426 | 86 | 255 | 0.0 | 0.9 | 0.00 | 0.01 | 0.01 | 54 | 1009.9 |
| 20260509183232 | 86 | 167 | 0.0 | 0.0 | 0.00 | 0.01 | 0.01 | 59 | 1010.0 |
| 20260509182732 | 86 | 174 | 0.0 | 0.0 | 0.00 | 0.01 | 0.01 | 59 | 1010.0 |
| 20260509182230 | 85 | 231 | 0.0 | 0.9 | 0.00 | 0.01 | 0.01 | 58 | 1010.0 |
| 20260509181426 | 85 | 242 | 0.0 | 0.9 | 0.00 | 0.01 | 0.01 | 58 | 1010.2 |
| 20260509180924 | 85 | 244 | 0.0 | 0.0 | 0.00 | 0.01 | 0.01 | 59 | 1010.2 |
| 20260509180425 | 85 | 245 | 0.0 | 0.0 | 0.00 | 0.01 | 0.01 | 59 | 1010.3 |
| 20260509175926 | 85 | 234 | 0.0 | 0.0 | 0.00 | 0.01 | 0.01 | 62 | 1010.3 |
| 20260509175424 | 85 | 189 | 0.0 | 0.9 | 0.00 | 0.01 | 0.01 | 61 | 1010.5 |
| 20260509174926 | 84 | 191 | 0.0 | 0.9 | 0.00 | 0.01 | 0.01 | 64 | 1010.6 |
| 20260509174426 | 84 | 232 | 0.0 | 0.9 | 0.00 | 0.01 | 0.01 | 61 | 1010.6 |
| 20260509173926 | 84 | 226 | 0.0 | 1.7 | 0.00 | 0.01 | 0.01 | 63 | 1010.8 |
| 20260509173425 | 84 | 233 | 0.0 | 1.7 | 0.00 | 0.01 | 0.01 | 62 | 1010.8 |
| 20260509172924 | 84 | 271 | 0.0 | 0.9 | 0.00 | 0.01 | 0.01 | 66 | 1010.8 |
| 20260509172425 | 83 | 239 | 0.0 | 0.9 | 0.00 | 0.01 | 0.01 | 64 | 1010.9 |
| 20260509171925 | 83 | 224 | 0.0 | 0.0 | 0.00 | 0.01 | 0.01 | 64 | 1010.9 |
| 20260509171430 | 83 | 226 | 0.0 | 0.0 | 0.00 | 0.01 | 0.01 | 66 | 1011.0 |
| 20260509170929 | 83 | 229 | 0.0 | 0.0 | 0.00 | 0.01 | 0.01 | 68 | 1011.0 |
| 20260509170428 | 82 | 213 | 0.0 | 0.9 | 0.00 | 0.01 | 0.01 | 67 | 1011.1 |
| 20260509165926 | 82 | 275 | 0.0 | 0.9 | 0.00 | 0.01 | 0.01 | 67 | 1011.1 |
| 20260509165421 | 81 | 243 | 0.0 | 0.0 | 0.00 | 0.01 | 0.01 | 67 | 1011.0 |
| 20260509165027 | 81 | 231 | 0.0 | 0.9 | 0.00 | 0.01 | 0.01 | 69 | 1011.1 |
| 20260509164525 | 80 | 218 | 0.0 | 0.9 | 0.00 | 0.01 | 0.01 | 69 | 1011.1 |
| 20260509164024 | 80 | 263 | 0.0 | 0.9 | 0.00 | 0.01 | 0.01 | 69 | 1011.1 |
| 20260509163536 | 80 | 227 | 0.0 | 0.9 | 0.00 | 0.01 | 0.01 | 69 | 1011.2 |
| 20260509163029 | 79 | 229 | 0.0 | 2.6 | 0.00 | 0.01 | 0.01 | 69 | 1011.2 |
| 20260509162522 | 78 | 226 | 0.9 | 3.5 | 0.00 | 0.01 | 0.01 | 67 | 1011.1 |
| 20260509162020 | 78 | 228 | 0.9 | 0.0 | 0.00 | 0.01 | 0.01 | 61 | 1011.2 |
| 20260509161319 | 76 | 234 | 0.0 | 4.3 | 0.00 | 0.01 | 0.01 | 47 | 1011.1 |
| 20260509160818 | 75 | 162 | 0.0 | 0.0 | 0.00 | 0.01 | 0.01 | 33 | 1011.1 |
| 20260509155958 | 74 | 163 | 0.0 | 0.0 | 0.00 | 0.01 | 0.01 | 21 | 1011.1 |
| 20260509155502 | 72 | 219 | 0.0 | 0.0 | 0.00 | 0.01 | 0.01 | 18 | 1011.2 |
| 20260509154950 | 72 | 229 | 0.0 | 0.0 | 0.00 | 0.01 | 0.01 | 16 | 1011.2 |
| 20260509154448 | 71 | 221 | 0.0 | 0.0 | 0.00 | 0.01 | 0.01 | 15 | 1011.2 |
| 20260509153946 | 71 | 221 | 0.0 | 0.0 | 0.00 | 0.01 | 0.01 | 16 | 1011.1 |
| 20260509152946 | 70 | 227 | 0.0 | 0.9 | 0.00 | 0.01 | 0.01 | 20 | 1011.0 |
| 20260509152447 | 70 | 175 | 0.0 | 0.9 | 0.00 | 0.01 | 0.01 | 22 | 1010.9 |
| 20260509151946 | 69 | 223 | 0.0 | 0.9 | 0.00 | 0.01 | 0.01 | 22 | 1011.0 |
| 20260509151747 | 68 | 257 | 0.0 | 0.9 | 0.00 | 0.01 | 0.01 | 22 | 1011.0 |
| 20260509150943 | 68 | 231 | 0.0 | 0.9 | 0.00 | 0.01 | 0.01 | 22 | 1010.9 |
| 20260509150746 | 67 | 238 | 0.0 | 0.9 | 0.00 | 0.01 | 0.01 | 22 | 1010.9 |
| 20260509150253 | 67 | 258 | 0.0 | 0.9 | 0.00 | 0.01 | 0.01 | 23 | 1010.8 |
| 20260509145442 | 67 | 263 | 0.0 | 0.0 | 0.00 | 0.01 | 0.01 | 23 | 1010.6 |
| 20260509145024 | 67 | 196 | 0.0 | 0.9 | 0.00 | 0.01 | 0.01 | 23 | 1010.5 |
| 20260509144830 | 67 | 239 | 0.0 | 0.9 | 0.00 | 0.01 | 0.01 | 24 | 1010.5 |
| 20260509144026 | 67 | 229 | 0.0 | 0.0 | 0.00 | 0.01 | 0.01 | 24 | 1010.4 |
| 20260509143521 | 67 | 238 | 0.0 | 0.0 | 0.00 | 0.01 | 0.01 | 24 | 1010.3 |
| 20260509143027 | 67 | 226 | 0.0 | 0.0 | 0.00 | 0.01 | 0.01 | 24 | 1010.3 |
| 20260509142519 | 66 | 226 | 0.0 | 0.0 | 0.00 | 0.01 | 0.01 | 24 | 1010.2 |
| 20260509142012 | 66 | 234 | 0.0 | 0.0 | 0.00 | 0.01 | 0.01 | 24 | 1010.3 |
| 20260509141510 | 66 | 235 | 0.0 | 0.0 | 0.00 | 0.01 | 0.01 | 24 | 1010.6 |
| 20260509141202 | 66 | 235 | 0.0 | 0.0 | 0.00 | 0.01 | 0.01 | 25 | 1010.5 |
| 20260509141008 | 66 | 234 | 0.0 | 0.0 | 0.00 | 0.01 | 0.01 | 25 | 1010.5 |
| 20260509140159 | 66 | 241 | 0.0 | 0.0 | 0.00 | 0.01 | 0.01 | 25 | 1010.3 |
| 20260509135959 | 66 | 265 | 0.0 | 0.0 | 0.00 | 0.01 | 0.01 | 25 | 1010.3 |
| 20260509135154 | 66 | 234 | 0.0 | 0.0 | 0.00 | 0.01 | 0.01 | 25 | 1010.4 |
| 20260509135005 | 65 | 225 | 0.0 | 0.0 | 0.00 | 0.01 | 0.01 | 26 | 1010.3 |
| 20260509134159 | 65 | 225 | 0.0 | 0.0 | 0.00 | 0.01 | 0.01 | 26 | 1010.3 |
| 20260509133658 | 65 | 240 | 0.0 | 0.0 | 0.00 | 0.01 | 0.01 | 26 | 1010.4 |
| 20260509133154 | 65 | 225 | 0.0 | 0.0 | 0.00 | 0.01 | 0.01 | 26 | 1010.4 |
| 20260509132651 | 65 | 224 | 0.0 | 0.0 | 0.00 | 0.01 | 0.01 | 26 | 1010.2 |
| 20260509132146 | 65 | 230 | 0.0 | 0.0 | 0.00 | 0.01 | 0.01 | 26 | 1010.1 |
| 20260509131640 | 65 | 225 | 0.0 | 0.0 | 0.00 | 0.01 | 0.01 | 26 | 1010.2 |
| 20260509131142 | 65 | 225 | 0.0 | 1.7 | 0.00 | 0.01 | 0.01 | 26 | 1010.2 |
| 20260509130641 | 64 | 175 | 0.0 | 1.7 | 0.00 | 0.01 | 0.01 | 26 | 1010.2 |
| 20260509130138 | 64 | 163 | 0.0 | 0.0 | 0.00 | 0.01 | 0.01 | 26 | 1010.2 |
| 20260509125637 | 64 | 153 | 0.0 | 0.0 | 0.00 | 0.01 | 0.01 | 27 | 1010.2 |
| 20260509125136 | 64 | 222 | 0.0 | 0.0 | 0.00 | 0.01 | 0.01 | 27 | 1010.2 |
| 20260509124633 | 64 | 223 | 0.0 | 0.0 | 0.00 | 0.01 | 0.01 | 27 | 1010.1 |
| 20260509124130 | 63 | 189 | 0.0 | 0.0 | 0.00 | 0.01 | 0.01 | 27 | 1010.1 |
| 20260509123631 | 63 | 166 | 0.0 | 0.0 | 0.00 | 0.01 | 0.01 | 27 | 1010.0 |
| 20260509123439 | 63 | 166 | 0.0 | 0.0 | 0.00 | 0.01 | 0.01 | 26 | 1009.9 |
| 20260509122630 | 62 | 150 | 0.0 | 0.0 | 0.00 | 0.01 | 0.01 | 26 | 1010.0 |
| 20260509122131 | 62 | 150 | 0.0 | 0.0 | 0.00 | 0.01 | 0.01 | 26 | 1010.0 |
| 20260509121630 | 63 | 150 | 0.0 | 0.0 | 0.00 | 0.01 | 0.01 | 26 | 1010.0 |
| 20260509121140 | 63 | 150 | 0.0 | 0.0 | 0.00 | 0.01 | 0.01 | 26 | 1009.9 |
| 20260509120639 | 63 | 150 | 0.0 | 0.0 | 0.00 | 0.01 | 0.01 | 26 | 1010.0 |
| 20260509120443 | 63 | 150 | 0.0 | 0.0 | 0.00 | 0.01 | 0.01 | 26 | 1010.1 |
| 20260509115636 | 64 | 150 | 0.0 | 0.0 | 0.00 | 0.01 | 0.01 | 26 | 1010.0 |
| 20260509115201 | 64 | 150 | 0.0 | 0.0 | 0.00 | 0.01 | 0.01 | 26 | 1010.1 |
| 20260509114701 | 64 | 150 | 0.0 | 0.0 | 0.00 | 0.01 | 0.01 | 26 | 1010.2 |
| 20260509114201 | 64 | 150 | 0.0 | 0.0 | 0.00 | 0.01 | 0.01 | 27 | 1010.2 |
| 20260509113701 | 64 | 151 | 0.0 | 0.0 | 0.00 | 0.01 | 0.01 | 27 | 1010.5 |
| 20260509113205 | 64 | 151 | 0.0 | 0.0 | 0.00 | 0.01 | 0.01 | 27 | 1010.4 |
| 20260509112710 | 64 | 151 | 0.0 | 0.0 | 0.00 | 0.01 | 0.01 | 27 | 1010.5 |
| 20260509112204 | 64 | 80 | 0.0 | 0.0 | 0.00 | 0.01 | 0.01 | 27 | 1011.1 |
| 20260509111657 | 64 | 78 | 0.0 | 0.0 | 0.00 | 0.01 | 0.01 | 27 | 1011.2 |
| 20260509111151 | 64 | 75 | 0.0 | 0.0 | 0.00 | 0.01 | 0.01 | 27 | 1011.3 |
| 20260509110429 | 63 | 75 | 0.0 | 0.9 | 0.00 | 0.01 | 0.01 | 28 | 1011.4 |
| 20260509105929 | 63 | 75 | 0.0 | 0.9 | 0.00 | 0.01 | 0.01 | 28 | 1011.3 |
| 20260509105429 | 63 | 79 | 0.0 | 2.6 | 0.00 | 0.01 | 0.01 | 28 | 1011.3 |
| 20260509104931 | 63 | 71 | 0.0 | 2.6 | 0.00 | 0.01 | 0.01 | 28 | 1011.3 |
| 20260509104429 | 63 | 71 | 0.0 | 0.9 | 0.00 | 0.01 | 0.01 | 28 | 1011.2 |
| 20260509103929 | 63 | 69 | 0.0 | 0.9 | 0.00 | 0.01 | 0.01 | 28 | 1011.1 |
| 20260509103430 | 63 | 34 | 0.0 | 2.6 | 0.00 | 0.01 | 0.01 | 27 | 1011.1 |
| 20260509102929 | 63 | 79 | 0.0 | 2.6 | 0.00 | 0.01 | 0.01 | 27 | 1011.0 |
| 20260509102430 | 63 | 77 | 0.0 | 0.0 | 0.00 | 0.01 | 0.01 | 27 | 1010.8 |
| 20260509101929 | 63 | 72 | 0.0 | 0.0 | 0.00 | 0.01 | 0.01 | 28 | 1011.0 |
| 20260509101428 | 63 | 72 | 0.0 | 0.0 | 0.00 | 0.01 | 0.01 | 28 | 1010.9 |
| 20260509100929 | 64 | 72 | 0.0 | 0.0 | 0.00 | 0.01 | 0.01 | 28 | 1010.9 |
| 20260509100921 | 64 | 48 | 0.0 | 0.9 | 0.00 | 0.01 | 0.01 | 28 | 1011.0 |
| 20260509100535 | 64 | 72 | 0.0 | 0.0 | 0.00 | 0.01 | 0.01 | 28 | 1011.0 |
| 20260509095427 | 64 | 30 | 0.0 | 0.9 | 0.00 | 0.01 | 0.01 | 28 | 1011.1 |
| 20260509094927 | 64 | 34 | 0.0 | 0.9 | 0.00 | 0.01 | 0.01 | 28 | 1011.1 |
| 20260509094429 | 64 | 31 | 0.0 | 0.9 | 0.00 | 0.01 | 0.01 | 28 | 1010.8 |
| 20260509093928 | 64 | 34 | 0.0 | 1.7 | 0.00 | 0.01 | 0.01 | 29 | 1010.8 |
| 20260509093742 | 63 | 17 | 0.0 | 1.7 | 0.00 | 0.01 | 0.01 | 29 | 1010.6 |
| 20260509092927 | 63 | 355 | 0.0 | 0.0 | 0.01 | 0.01 | 0.01 | 29 | 1010.8 |
| 20260509092742 | 63 | 16 | 0.9 | 7.8 | 0.01 | 0.01 | 0.01 | 30 | 1010.6 |
| 20260509092246 | 62 | 324 | 0.9 | 7.8 | 0.01 | 0.01 | 0.01 | 30 | 1010.6 |
| 20260509091746 | 61 | 5 | 0.0 | 7.8 | 0.01 | 0.01 | 0.01 | 30 | 1010.6 |
| 20260509091239 | 61 | 329 | 0.0 | 0.9 | 0.01 | 0.01 | 0.01 | 30 | 1009.6 |
| 20260509090423 | 60 | 121 | 0.0 | 0.0 | 0.01 | 0.01 | 0.01 | 31 | 1009.0 |
| 20260509085922 | 60 | 121 | 0.0 | 0.0 | 0.01 | 0.00 | 0.01 | 31 | 1008.9 |
| 20260509085423 | 60 | 99 | 0.0 | 0.0 | 0.01 | 0.00 | 0.01 | 31 | 1008.9 |
| 20260509084922 | 60 | 98 | 0.0 | 0.0 | 0.01 | 0.00 | 0.01 | 31 | 1009.1 |
| 20260509084421 | 60 | 98 | 0.0 | 0.0 | 0.01 | 0.00 | 0.01 | 31 | 1009.2 |
| 20260509083923 | 60 | 98 | 0.0 | 0.0 | 0.01 | 0.00 | 0.01 | 31 | 1009.3 |
| 20260509083727 | 60 | 98 | 0.0 | 0.0 | 0.01 | 0.00 | 0.01 | 31 | 1009.4 |
| 20260509082922 | 60 | 98 | 0.0 | 0.0 | 0.00 | 0.00 | 0.00 | 31 | 1009.3 |
| 20260509082426 | 60 | 98 | 0.0 | 0.9 | 0.00 | 0.00 | 0.00 | 31 | 1009.5 |
| 20260509082035 | 60 | 98 | 0.0 | 1.7 | 0.00 | 0.00 | 0.00 | 32 | 1009.7 |
| 20260509082007 | 60 | 98 | 0.0 | 0.9 | 0.00 | 0.00 | 0.00 | 31 | 1009.6 |
| 20260509081627 | 60 | 98 | 0.0 | 0.0 | 0.00 | 0.00 | 0.00 | 32 | 1009.8 |
| 20260509081020 | 60 | 98 | 0.0 | 0.0 | 0.00 | 0.00 | 0.00 | 32 | 1009.8 |
| 20260509080230 | 60 | 98 | 0.0 | 2.6 | 0.00 | 0.00 | 0.00 | 33 | 1009.7 |
| 20260509075733 | 59 | 98 | 0.0 | 2.6 | 0.00 | 0.00 | 0.00 | 34 | 1009.7 |
| 20260509074914 | 59 | 98 | 0.0 | 0.0 | 0.00 | 0.00 | 0.00 | 34 | 1009.7 |
| 20260509074411 | 59 | 98 | 0.0 | 0.0 | 0.00 | 0.00 | 0.00 | 34 | 1009.7 |
| 20260509073907 | 59 | 98 | 0.0 | 0.0 | 0.00 | 0.00 | 0.00 | 34 | 1009.9 |
| 20260509073708 | 59 | 98 | 0.0 | 0.0 | 0.00 | 0.00 | 0.00 | 35 | 1009.9 |
| 20260509072905 | 59 | 98 | 0.0 | 0.0 | 0.00 | 0.00 | 0.00 | 35 | 1009.9 |
| 20260509072401 | 59 | 98 | 0.0 | 0.0 | 0.00 | 0.00 | 0.00 | 35 | 1009.9 |
| 20260509071855 | 59 | 98 | 0.0 | 0.0 | 0.00 | 0.00 | 0.00 | 35 | 1010.0 |
| 20260509071355 | 60 | 98 | 0.0 | 0.0 | 0.00 | 0.00 | 0.00 | 36 | 1010.0 |
| 20260509070852 | 60 | 98 | 0.0 | 0.0 | 0.00 | 0.00 | 0.00 | 36 | 1010.1 |
| 20260509070550 | 60 | 98 | 0.0 | 0.0 | 0.00 | 0.00 | 0.00 | 34 | 1010.1 |
| 20260509065736 | 60 | 98 | 0.0 | 0.0 | 0.00 | 0.00 | 0.00 | 35 | 1010.0 |
| 20260509065544 | 60 | 98 | 0.0 | 0.0 | 0.00 | 0.00 | 0.00 | 35 | 1010.0 |
| 20260509064732 | 60 | 98 | 0.0 | 0.0 | 0.00 | 0.00 | 0.00 | 35 | 1009.9 |
| 20260509064233 | 60 | 98 | 0.0 | 0.0 | 0.00 | 0.00 | 0.00 | 35 | 1010.0 |
| 20260509064041 | 60 | 98 | 0.0 | 0.0 | 0.00 | 0.00 | 0.00 | 36 | 1010.0 |
| 20260509063229 | 60 | 98 | 0.0 | 0.0 | 0.00 | 0.00 | 0.00 | 36 | 1010.0 |
| 20260509063045 | 61 | 98 | 0.0 | 0.0 | 0.00 | 0.00 | 0.00 | 37 | 1010.1 |
| 20260509062225 | 61 | 98 | 0.0 | 0.0 | 0.00 | 0.00 | 0.00 | 36 | 1010.0 |
| 20260509061720 | 61 | 99 | 0.0 | 0.0 | 0.00 | 0.00 | 0.00 | 36 | 1009.9 |
| 20260509061217 | 61 | 99 | 0.0 | 0.0 | 0.00 | 0.00 | 0.00 | 35 | 1009.8 |